Wind_Speed
30 26 23 19 19 17 14 11 15 15 17 21 27 8 9 8 17 24 24 20 23 21 18 16 15 17 19 20 16 14 13 12 9 6 5 6 9 11 13 14 15 15 15 13
30 28 29 25 22 18 11 9 11 14 20 20 19 9 9 11 14 22 23 24 20 23 23 22 21 21 20 20 19 16 12 14 15 11 9 10 10 11 14 17 18 18 19 17
28 32 25 19 23 20 16 14 14 16 14 16 16 15 14 16 13 15 17 23 26 26 28 29 30 30 28 26 19 20 20 18 18 19 15 13 13 15 17 18 20 21 21 20
14 18 5 17 22 22 19 13 14 12 15 17 18 15 12 16 16 19 22 24 28 31 32 35 39 44 37 33 21 20 24 23 21 23 19 15 15 18 19 21 23 24 24 22
9 14 8 12 18 20 18 15 10 8 15 17 17 11 12 9 10 14 23 29 27 31 38 35 37 52 29 38 29 25 28 26 23 24 21 17 18 19 21 23 24 24 23 22
11 6 7 16 18 18 15 14 13 15 19 19 20 21 9 10 15 17 18 21 22 22 24 24 24 32 35 27 36 25 23 26 25 24 20 20 20 21 23 25 25 25 23 21
18 8 9 16 20 18 15 13 14 18 20 21 16 10 11 8 4 5 6 8 11 15 16 19 19 18 12 11 30 23 30 26 26 23 21 20 20 22 23 26 25 24 24 22
13 10 11 18 20 20 17 14 10 15 15 16 14 12 13 10 10 14 12 10 10 9 8 15 15 9 11 12 14 22 21 21 20 20 19 20 20 21 23 25 25 24 23 22
12 10 15 22 26 26 20 18 16 17 18 19 18 16 17 14 14 16 17 14 9 11 11 3 10 8 12 11 14 9 10 13 17 17 18 18 19 20 22 24 24 24 24 23
10 9 12 21 24 22 22 19 19 20 23 19 14 12 12 15 15 17 13 11 14 14 12 9 9 10 13 16 12 8 8 17 18 17 17 17 18 19 21 22 23 23 24 24
12 14 7 6 9 14 16 15 13 14 14 12 11 13 13 12 10 12 11 10 11 13 12 11 10 12 13 13 11 10 14 16 15 15 16 16 17 19 21 22 23 24 24 25
12 18 11 11 14 15 15 14 9 8 6 6 4 3 11 11 12 13 14 16 15 14 13 14 13 15 16 14 12 12 14 14 15 16 16 16 18 20 22 23 24 25 25 25
9 5 12 16 14 10 13 14 8 10 10 8 7 5 6 9 11 13 12 14 18 20 16 17 18 19 17 16 17 15 16 15 16 17 17 18 19 20 22 24 25 25 25 25
10 11 10 12 14 12 13 16 14 13 12 13 14 14 13 14 16 17 14 12 14 13 14 15 15 16 18 17 16 16 16 17 18 18 19 20 21 22 23 25 25 25 25 24
9 11 10 12 13 12 13 16 18 20 20 19 19 21 22 17 15 17 18 16 17 15 14 14 14 14 16 17 18 18 19 18 18 19 21 23 24 24 24 24 24 24 23 23
10 11 12 13 16 19 22 25 26 26 26 28 29 28 28 26 21 19 20 19 18 16 16 16 19 19 19 19 20 20 18 19 20 21 22 23 23 23 24 24 23 22 21 21
8 10 13 18 21 22 23 23 22 21 22 22 22 23 25 27 23 23 23 20 19 17 17 15 17 18 19 19 18 18 18 19 22 23 23 22 22 23 22 22 22 22 22 21
12 13 15 16 17 16 16 16 15 15 14 15 17 20 20 20 21 22 22 21 20 22 20 18 16 15 17 18 17 18 21 22 22 22 23 22 22 21 21 20 20 19 19 19
11 12 13 12 12 12 13 14 14 13 14 14 15 15 16 20 22 23 23 22 19 21 20 18 15 17 20 22 22 22 18 19 23 23 22 22 22 20 19 18 18 16 15 16
11 11 11 11 12 12 12 13 13 12 13 13 13 12 11 18 21 21 23 22 17 21 23 21 19 17 17 22 23 19 18 21 23 24 23 20 18 16 14 14 14 13 9 9
11 10 11 10 9 10 10 11 11 12 12 11 11 11 11 12 15 20 25 23 17 23 22 27 24 17 18 20 20 20 19 22 23 20 18 15 12 11 15 16 16 11 8 8
10 9 9 10 10 10 11 11 12 12 11 11 11 11 9 14 17 18 22 19 16 17 23 22 19 18 23 21 18 19 23 20 17 15 14 15 15 15 17 17 14 11 9 9
10 9 9 10 11 11 11 11 11 11 11 12 11 11 10 10 10 11 12 17 20 20 26 31 28 27 27 25 26 26 25 21 19 17 16 17 19 20 19 17 16 15 13 12
10 10 10 11 10 9 9 10 11 11 10 12 12 12 11 9 8 10 21 25 21 22 18 21 21 28 31 33 32 32 27 24 25 26 21 19 23 24 24 21 21 16 14 13
10 11 11 9 7 9 9 6 8 10 12 12 10 9 8 8 7 6 3 7 11 17 21 19 20 32 34 34 32 34 30 24 23 15 13 23 26 24 20 18 17 16 17 18
10 9 9 7 7 7 5 4 6 9 9 7 4 3 5 6 7 8 8 5 6 5 4 6 10 17 22 23 27 29 31 27 15 8 12 9 7 5 5 10 15 19 21 16
10 7 7 7 5 6 4 3 5 6 6 5 4 3 4 4 6 7 8 9 8 8 10 11 10 12 11 8 11 16 11 3 7 10 10 5 6 7 11 14 18 20 19 18
Wind_Direction
247 252 258 264 274 270 272 273 254 268 285 287 311 269 279 267 200 194 202 205 205 197 197 198 209 202 205 214 208 208 214 217 224 238 277 309 323 335 339 342 341 338 328 312
254 257 259 262 273 255 240 256 264 293 279 281 291 251 279 268 222 209 216 216 216 211 209 217 224 222 217 209 210 213 226 249 244 247 265 286 299 314 325 329 331 331 327 315
241 243 246 247 255 242 253 268 285 276 276 254 265 248 276 285 251 232 230 228 227 222 218 223 229 226 223 221 244 229 233 241 247 253 260 280 302 310 315 320 322 323 320 312
228 215 163 235 235 237 248 255 277 259 253 244 253 261 262 261 263 241 242 235 234 234 235 232 237 231 242 230 243 248 239 237 244 244 256 274 295 302 306 312 315 318 317 312
201 195 202 216 235 242 240 249 247 255 252 246 268 280 278 261 254 250 244 243 246 246 241 246 249 238 251 232 212 236 248 251 243 237 251 272 286 294 300 305 310 314 312 308
206 180 189 230 239 239 236 227 228 237 246 260 251 288 287 284 272 266 262 262 255 254 251 249 258 257 261 259 215 230 246 256 237 238 252 271 283 292 298 303 308 310 308 305
218 214 217 219 218 223 209 235 234 231 237 244 263 270 281 277 258 257 246 256 263 260 257 257 261 271 299 189 188 208 231 225 224 238 256 269 280 289 297 303 305 307 307 305
214 202 232 226 214 207 226 210 211 219 227 240 248 258 262 242 246 249 249 275 264 273 254 273 254 230 221 231 217 218 217 215 226 245 260 271 281 290 297 302 303 304 303 303
213 216 226 216 212 213 213 212 221 217 223 237 242 246 250 266 257 249 265 265 263 261 257 246 191 234 225 220 211 186 211 231 234 243 258 268 280 289 295 298 300 301 301 301
226 226 204 201 209 215 222 212 208 220 228 237 255 267 266 253 255 251 246 242 261 256 248 214 198 205 213 220 195 197 238 252 244 248 260 274 284 291 294 295 298 298 296 296
202 178 194 227 210 217 222 229 233 237 241 250 256 251 237 238 240 228 205 210 229 238 244 225 228 234 233 231 228 228 230 231 244 260 271 279 287 291 294 298 299 299 297 297
233 219 224 244 244 238 257 246 222 234 241 243 237 241 234 241 249 246 250 251 254 244 233 236 238 242 243 245 254 258 247 250 261 270 279 286 291 296 299 299 297 295 293 291
243 234 246 251 241 246 228 221 251 260 241 220 217 222 244 251 257 251 254 247 240 240 232 231 241 249 255 258 264 246 250 260 269 273 279 285 289 292 290 290 290 288 288 289
224 256 261 240 246 252 258 261 260 264 269 252 244 244 267 263 253 250 249 248 241 237 237 241 249 257 257 249 244 251 259 264 269 275 280 282 281 282 286 290 292 291 290 291
262 260 260 266 271 271 272 269 266 264 265 260 255 259 267 274 265 250 242 250 256 257 261 262 261 256 252 252 256 259 261 266 271 275 277 276 279 283 288 290 291 291 293 294
249 255 269 279 283 284 285 283 281 276 270 267 263 260 261 264 262 237 235 245 255 265 271 267 261 262 258 254 254 258 264 267 269 272 276 279 282 288 292 291 291 291 290 293
240 258 273 283 286 284 282 283 283 280 277 274 267 261 256 255 248 234 236 242 244 246 257 267 264 258 253 253 255 264 269 273 273 276 278 281 287 290 289 288 286 286 287 290
262 273 280 281 285 287 291 292 292 291 287 282 273 264 251 242 235 232 232 228 243 243 245 255 254 256 255 255 258 263 268 273 276 278 281 282 283 282 280 280 280 281 283 284
269 277 286 285 286 291 297 301 303 305 303 296 286 275 256 234 228 226 227 233 237 242 245 247 239 249 256 250 255 257 259 266 269 270 269 272 272 272 276 280 281 286 290 289
266 279 285 291 299 304 307 309 313 311 306 303 299 282 257 232 227 223 225 229 234 232 232 225 238 253 254 261 258 259 257 262 265 264 263 259 263 270 280 289 291 290 300 314
275 284 291 296 307 313 317 317 318 318 315 311 306 296 279 238 227 224 237 232 235 254 246 255 221 222 238 250 267 267 257 248 250 246 243 254 274 296 311 306 297 287 321 324
270 276 290 297 305 303 307 314 320 323 321 317 317 316 304 261 243 245 241 243 224 254 271 258 249 227 234 239 252 252 239 231 232 248 251 259 274 290 297 302 308 304 300 295
257 271 285 292 295 298 301 308 320 326 325 323 321 325 339 338 252 241 236 248 260 271 262 278 284 247 239 235 234 235 231 231 236 244 261 266 278 281 287 288 289 294 276 277
279 283 294 299 286 288 294 303 308 313 314 315 319 320 324 334 332 273 245 253 265 263 276 259 253 264 248 229 237 247 229 228 234 237 232 256 271 275 278 268 269 269 267 265
272 286 290 289 276 281 294 304 324 329 323 319 311 320 332 340 346 347 299 268 273 268 267 268 263 254 242 230 244 239 224 222 238 248 287 280 277 272 263 246 250 257 261 269
277 276 276 292 290 272 286 335 344 351 355 2 13 41 49 40 39 52 71 84 74 49 344 318 272 250 270 265 255 246 236 238 245 283 277 280 278 275 245 241 260 269 268 275
285 280 267 278 283 306 305 270 320 345 2 11 29 46 54 69 72 69 65 58 46 30 18 15 17 23 3 318 233 234 249 287 277 262 265 266 284 287 285 279 272 275 287 277
Height
3126 3129 3132 3134 3135 3136 3135 3134 3136 3136 3136 3135 3132 3129 3132 3135 3137 3141 3144 3147 3150 3154 3158 3162 3164 3165 3166 3169 3171 3171 3173 3173 3175 3176 3177 3177 3178 3178 3176 3175 3174 3172 3171 3170
3119 3122 3126 3130 3130 3132 3132 3132 3132 3132 3132 3132 3130 3127 3128 3130 3133 3137 3141 3144 3148 3152 3155 3158 3163 3166 3167 3166 3167 3166 3170 3172 3173 3173 3174 3175 3175 3174 3174 3174 3173 3171 3169 3167
3115 3117 3121 3125 3126 3127 3128 3128 3129 3128 3129 3127 3127 3126 3126 3126 3129 3132 3136 3140 3144 3147 3149 3152 3155 3156 3160 3165 3166 3163 3165 3166 3168 3171 3171 3171 3170 3170 3170 3170 3170 3168 3166 3163
3112 3113 3119 3118 3119 3121 3122 3123 3124 3123 3124 3124 3123 3123 3124 3125 3126 3129 3132 3135 3139 3143 3144 3144 3144 3143 3143 3151 3158 3161 3161 3162 3164 3166 3167 3167 3167 3167 3167 3167 3166 3164 3161 3160
3109 3110 3111 3111 3114 3116 3117 3119 3120 3120 3121 3122 3122 3122 3123 3124 3125 3127 3129 3132 3134 3138 3139 3138 3138 3127 3135 3142 3147 3153 3158 3159 3160 3161 3162 3162 3163 3163 3163 3163 3162 3160 3158 3156
3105 3105 3106 3107 3110 3111 3114 3115 3114 3116 3118 3118 3118 3119 3120 3120 3121 3122 3123 3125 3128 3131 3134 3135 3134 3132 3133 3133 3141 3145 3151 3152 3154 3157 3157 3158 3158 3158 3157 3157 3156 3154 3152 3150
3100 3101 3101 3103 3105 3107 3110 3114 3109 3111 3113 3114 3115 3116 3117 3118 3118 3118 3119 3120 3122 3124 3128 3131 3132 3133 3132 3124 3134 3142 3147 3147 3149 3151 3152 3153 3153 3152 3152 3151 3149 3148 3147 3145
3096 3097 3098 3099 3100 3104 3105 3105 3107 3106 3109 3110 3111 3112 3114 3115 3116 3116 3117 3118 3118 3120 3123 3126 3127 3129 3131 3130 3132 3138 3140 3141 3144 3147 3147 3148 3148 3147 3147 3145 3144 3142 3141 3139
3093 3093 3092 3092 3095 3097 3099 3102 3105 3105 3105 3105 3106 3108 3110 3111 3111 3113 3113 3115 3116 3118 3121 3122 3123 3125 3128 3130 3131 3132 3135 3137 3139 3141 3142 3143 3143 3143 3141 3141 3139 3138 3136 3134
3088 3089 3089 3090 3093 3094 3096 3099 3101 3102 3102 3103 3104 3105 3106 3106 3108 3109 3111 3112 3113 3115 3118 3120 3122 3124 3127 3129 3127 3129 3132 3133 3136 3137 3137 3137 3137 3137 3137 3136 3134 3132 3131 3129
3086 3087 3089 3091 3093 3094 3095 3096 3098 3100 3101 3101 3102 3102 3102 3103 3105 3106 3108 3109 3111 3112 3114 3116 3119 3121 3124 3125 3125 3125 3127 3129 3131 3131 3132 3132 3132 3132 3131 3130 3129 3127 3125 3124
3083 3085 3088 3090 3091 3092 3095 3096 3095 3097 3097 3099 3098 3100 3101 3101 3103 3104 3105 3107 3108 3109 3110 3111 3114 3117 3119 3120 3121 3121 3123 3125 3126 3127 3126 3126 3126 3126 3126 3125 3124 3122 3120 3118
3081 3083 3085 3086 3088 3089 3091 3094 3094 3094 3096 3097 3097 3099 3101 3100 3100 3100 3101 3101 3103 3105 3106 3108 3110 3111 3112 3113 3115 3117 3118 3119 3119 3120 3120 3121 3122 3122 3121 3120 3118 3117 3114 3112
3080 3082 3083 3084 3086 3087 3088 3089 3090 3091 3092 3093 3094 3095 3097 3098 3098 3098 3098 3099 3101 3101 3102 3103 3104 3105 3106 3107 3109 3111 3111 3113 3114 3114 3115 3117 3118 3117 3114 3114 3113 3111 3108 3106
3079 3079 3081 3082 3082 3083 3083 3084 3085 3086 3087 3088 3089 3089 3090 3092 3093 3093 3094 3094 3096 3097 3098 3099 3100 3100 3101 3103 3104 3105 3107 3109 3110 3110 3111 3112 3112 3110 3108 3107 3105 3103 3101 3099
3078 3079 3078 3078 3078 3078 3077 3077 3077 3078 3079 3080 3081 3081 3082 3084 3086 3087 3089 3091 3092 3093 3093 3094 3095 3096 3097 3099 3100 3100 3102 3104 3105 3105 3105 3104 3103 3102 3101 3099 3097 3094 3093 3092
3076 3077 3077 3076 3075 3073 3072 3071 3070 3070 3071 3070 3070 3071 3073 3074 3077 3080 3083 3087 3088 3089 3091 3091 3090 3091 3092 3093 3094 3094 3097 3097 3099 3099 3098 3097 3096 3095 3094 3092 3090 3089 3090 3089
3072 3072 3072 3071 3069 3069 3067 3067 3066 3065 3064 3063 3063 3063 3065 3068 3071 3074 3077 3080 3083 3085 3087 3086 3086 3085 3087 3088 3090 3091 3092 3091 3092 3091 3091 3091 3091 3090 3089 3087 3086 3086 3086 3084
3069 3068 3068 3067 3066 3065 3064 3063 3062 3060 3058 3057 3057 3057 3058 3060 3063 3066 3069 3071 3073 3077 3079 3080 3081 3082 3082 3084 3085 3085 3086 3086 3087 3087 3087 3087 3087 3085 3084 3083 3083 3081 3080 3078
3065 3065 3064 3064 3062 3061 3061 3060 3058 3057 3055 3054 3053 3053 3053 3056 3058 3060 3062 3065 3067 3068 3070 3072 3074 3075 3077 3078 3079 3079 3080 3082 3082 3082 3082 3082 3081 3080 3078 3078 3077 3075 3075 3073
3061 3061 3060 3060 3060 3059 3058 3057 3055 3054 3053 3051 3051 3049 3048 3050 3052 3054 3056 3058 3060 3061 3062 3066 3063 3066 3070 3070 3072 3072 3074 3076 3077 3077 3076 3076 3075 3074 3073 3072 3071 3070 3069 3069
3059 3059 3058 3058 3057 3056 3055 3054 3053 3052 3051 3050 3048 3047 3046 3045 3045 3046 3048 3051 3049 3054 3057 3057 3058 3057 3062 3063 3065 3066 3068 3069 3070 3070 3070 3070 3069 3069 3068 3067 3067 3066 3066 3066
3057 3057 3056 3055 3054 3054 3053 3052 3051 3050 3049 3047 3046 3045 3043 3042 3041 3042 3044 3047 3049 3050 3051 3052 3052 3053 3054 3055 3057 3058 3060 3061 3063 3063 3063 3064 3064 3063 3063 3062 3063 3062 3062 3062
3053 3053 3053 3052 3052 3052 3052 3051 3050 3048 3047 3046 3044 3043 3042 3041 3040 3039 3040 3042 3043 3046 3046 3045 3046 3048 3048 3049 3048 3048 3051 3054 3055 3054 3054 3056 3057 3056 3056 3057 3058 3058 3058 3058
3050 3050 3049 3049 3050 3050 3050 3049 3048 3047 3045 3044 3043 3042 3040 3039 3038 3037 3037 3039 3040 3042 3042 3042 3042 3041 3039 3042 3042 3043 3043 3046 3045 3046 3047 3050 3049 3048 3048 3050 3052 3052 3052 3052
3046 3047 3047 3047 3047 3047 3047 3048 3047 3046 3045 3043 3042 3041 3041 3040 3039 3038 3038 3038 3038 3039 3039 3037 3035 3034 3035 3033 3032 3033 3035 3038 3039 3043 3045 3045 3044 3043 3044 3046 3047 3046 3046 3045
3043 3044 3044 3044 3045 3046 3046 3046 3046 3046 3045 3044 3043 3042 3042 3041 3041 3041 3040 3040 3039 3039 3038 3036 3035 3033 3031 3028 3027 3030 3030 3033 3038 3041 3042 3041 3041 3041 3041 3041 3041 3040 3040 3039